Flag for Canada Weather past 2 weeks in Iqaluit, Nunavut Territory, Canada

Now
-20 °F

Snow flurries. Ice fog.


Feels Like: -20 °F
Forecast: -25 / -12 °F
Wind: 2 mph from Northwest

Location: Iqaluit

Current Time: Feb 1, 2015 at 10:19:55 AM

Latest Report: Feb 1, 2015 at 9:00 AM


Visibility: 3 mi

Pressure: 30.14 "Hg

Humidity: 68%

Dew point: -27 °F

Location of IqaluitLocation

Historic Weather in Iqaluit — Graph

°F

Iqaluit temperature yesterday

Maximum temperature yesterday: -22 °F (at 1:00 AM)
Minimum temperature yesterday: -33 °F (at 5:00 PM)
Average temperature yesterday: -27 °F

Past Weeks' High & Low Weather Summary

 TemperatureHumidityPressure
High3 °F (Jan 28, 9:00 AM)85% (Jan 28, 8:00 AM)30.25 "Hg (Jan 28, 8:00 AM)
Low-45 °F (Jan 26, 4:00 AM)52% (Jan 26, 1:00 AM)29.47 "Hg (Jan 18, 1:00 AM)
Average-22 °F65%29.86 "Hg
* Reported Jan 17 9:00 AM — Feb 1 9:00 AM, Iqaluit, Weather by CustomWeather, © 2014

Note: Actual official high and low records may vary slightly from our data, if they occured in-between our weather recording intervals... More about our weather records

Advertising

Iqaluit weather history for previous 24 hours

 ConditionsComfort  
Time TempWeatherWind HumidityBarometerVisibility
9:00 AM
Feb 1
-20 °FSnow flurries. Ice fog.2 mph68%30.14 "Hg3 mi
8:00 AM-20 °FSnow flurries. Ice fog.No wind68%30.16 "Hg3 mi
7:00 AM-20 °FSnow flurries. Passing clouds.3 mph62%30.17 "Hg5 mi
6:00 AM-22 °FSnow flurries. Passing clouds.No wind68%30.16 "Hg5 mi
5:00 AM-22 °FSnow flurries. Passing clouds.2 mph68%30.16 "Hg10 mi
4:00 AM-24 °FSnow flurries. Passing clouds.No wind68%30.16 "Hg10 mi
3:00 AM-24 °FSnow flurries. Passing clouds.5 mph68%30.15 "Hg10 mi
2:00 AM-26 °FSnow flurries. Passing clouds.2 mph67%30.16 "Hg10 mi
1:00 AM-27 °FSnow flurries. Passing clouds.2 mph67%30.16 "Hg15 mi
12:00 AM-27 °FSnow flurries. Passing clouds.2 mph67%30.15 "Hg15 mi
11:00 PM
Jan 31
-29 °FSnow flurries. Passing clouds.2 mph67%30.14 "Hg15 mi
10:00 PM-29 °FSnow flurries. Passing clouds.2 mph67%30.13 "Hg15 mi
9:00 PM-29 °FSnow flurries. Clear.No wind67%30.13 "Hg15 mi
8:00 PM-27 °FSnow flurries. Clear.5 mph67%30.12 "Hg15 mi
7:00 PM-27 °FSnow flurries. Passing clouds.No wind67%30.12 "Hg15 mi
6:00 PM-27 °FSnow flurries. Passing clouds.5 mph67%30.11 "Hg15 mi
5:53 PM-29 °FSnow flurries. Passing clouds.5 mph67%30.11 "Hg15 mi
5:00 PM-33 °FPassing clouds.2 mph66%30.11 "Hg15 mi
4:00 PM-29 °FPassing clouds.No wind67%30.09 "Hg15 mi
3:00 PM-29 °FPassing clouds.No wind67%30.08 "Hg30 mi
2:00 PM-26 °FPassing clouds.3 mph67%30.06 "Hg30 mi
1:00 PM-24 °FPassing clouds.No wind61%30.06 "Hg30 mi
12:00 PM-26 °FPassing clouds.No wind61%30.05 "Hg30 mi
11:00 AM-26 °FPassing clouds.3 mph61%30.04 "Hg30 mi
10:00 AM-29 °FPassing clouds.No wind67%30.04 "Hg30 mi
Weather by CustomWeather, © 2014

See weather overviewHow to use our weather pages